Погода в Пшеничище

Россия / Ярославская область     57°50′43″N   39°38′18″E
темп.,
°C
ветер,
м/с
пор.,
м/с
влажн.,
%
обл.,
%
осадки,
мм/ч
давл.,
гПа
погр.,
м
24 июня, чт
чт2400:00+22юз22789 0.0 102011
03:00+21зюз22815 0.0 102018
06:00+23зюз24797 0.0 1020117
09:00+28зюз346073 0.0 1019458
12:00+32юз354430 0.0 10191548
15:00+33юз354224 0.0 10172580
18:00+31з246041 0.0 1016147
21:00+25ююз11720 0.0 101611
25 июня, пт
пт2500:00+22зсз3473100 0.0 101663
03:00+20ссз2284100 0.0 101638
06:00+21зсз2386100 0.6 101694
09:00+24зсз237420 1.4 1016363
12:00+28зсз245676 0.0 1016966
15:00+31зсз154630 0.0 10151939
18:00+31ссз12568 0.0 10131143
21:00+21юз5119093 1.1 1013214
26 июня, сб
сб2600:00+18зюз2396100 2.9 101453
03:00+18св1190100 2.9 101311
06:00+20юз2388100 0.0 1014119
09:00+24ююз33685 0.0 1013422
12:00+28ю34605 0.0 1012948
15:00+30ю555819 0.0 10111082
18:00+28юз366724 0.3 1010210
21:00+24зсз22765 0.5 101111
27 июня, вс
вс2700:00+21зюз11845 0.1 101111
03:00+20зюз11905 0.4 101211
06:00+22зюз23855 0.4 101298
09:00+26ююз22665 0.4 1012444
12:00+30ююз23532 0.0 10121421
15:00+31ююв435347 0.0 10121332
18:00+29ююв356550 0.0 1010301
21:00+26юз33749 0.0 101132
28 июня, пн
пн2800:00+21юз3391100 2.1 101247
03:00+20юз349069 3.8 101165
06:00+22ююз238720 0.0 1011117
09:00+26ююз227025 0.0 1011471
12:00+29ю345899 0.0 10111164
15:00+30ю555878 0.1 1011891
18:00+27ююз597298 1.7 1010362
21:00+19ююв1191100 4.4 101113